CANX-5 (40056 NORAD) Tracking and Keplerian Element Data

This shows tracking and keplerian element data for the satellite.

Feedback or suggestion? Click here.




ElementValue
Catalog40056
NameCANX-5
Epoch Orbit20865
Epoch Day198.88722758
Epoch Year2018
RAAN305.2872
Inclination98.1953
Eccentricity0.0013186
Argument of Perigee235.4353
Mean Anonmoly124.5612
Mean Motion14.74735596
Decay Rate6.8E-07
L11 40056U 14034D 18198.88722758 .00000068 00000-0 18069-4 0 9993
L22 40056 98.1953 305.2872 0013186 235.4353 124.5612 14.74735596208656

Live tracking and technical data element details for CANX-5 (NORAD 40056). CANX-5 can be tracked NOW for your location showing map with azimuth and elevation plus other details from your city location.

Track the satellite on the map from your city or location and see movement details for azimuth, elevation, latitude, longitude, range, height, and movement on the map or in text.







IsCatalogInMostPopularTable: catalog: 40056, numindb: 55
Update: records affected: 1



GetName: 40056 CANX-5

Hit Count: updated at: Thu, 19 Jul 2018 03:42:05 GMT